Pittsburg, KS

3:47 PM CDT on September 27, 2016 (GMT -0500)
Atkinson Municipal

Weather History for KPTS - September, 2013

Change the Weather History Date:

Saturday, September 14, 2013

  Actual Average (KJLN) Record (KJLN)
Temperature  
Mean Temperature 66 °F 72 °F  
Max Temperature 78 °F 83 °F 100 °F (1956)
Min Temperature 55 °F 60 °F 41 °F (1974)
Degree Days  
Heating Degree Days 0 1  
Month to date heating degree days 3  
Since 1 July heating degree days 4  
Cooling Degree Days 2 7  
Month to date cooling degree days 133  
Year to date cooling degree days 1560  
Growing Degree Days 16 (Base 50)    
Moisture  
Dew Point 54 °F    
Average Humidity 65    
Maximum Humidity 100    
Minimum Humidity 34    
Precipitation  
Precipitation 0.00 in 0.17 in 2.18 in (1972)
Month to date precipitation 2.29  
Year to date precipitation 33.26  
Sea Level Pressure  
Sea Level Pressure 30.04 in    
Wind  
Wind Speed 4 mph (SE)    
Max Wind Speed 10 mph    
Max Gust Speed 16 mph    
Visibility 10 miles    
Events      
T = Trace of Precipitation, MM = Missing Value Source: NWS Daily Summary

Daily Weather History Graph

Daily Weather History Graph

Search for Another Location

Airport or City:

Trip Planner

Search our weather history database for the weather conditions in past years. The results will help you decide how hot, cold, wet, or windy it might be!

Date:

Astronomy

Sep. 14, 2013 Rise Set
Actual Time 7:00 AM CDT 7:27 PM CDT
Civil Twilight 6:34 AM CDT 7:53 PM CDT
Nautical Twilight 6:03 AM CDT 8:24 PM CDT
Astronomical Twilight 5:31 AM CDT 8:56 PM CDT
Moon 4:05 PM CDT (9/14) 1:38 AM CDT (9/14)
Length of Visible Light 13h 19m
Length of Day
12h 27m
Waxing Gibbous, 72% of the Moon is Illuminated
Sep 14
Waxing Gibbous
Sep 19
Full
Sep 26
Last Quarter
Oct 4
New
Oct 11
First Quarter

Hourly Weather History & Observations

Time (CDT) Temp. Dew Point Humidity Pressure Visibility Wind Dir Wind Speed Gust Speed Precip Events Conditions
12:15 AM 56.8 °F 56.7 °F 99% 30.05 in 10.0 mi Calm Calm - N/A   Clear
12:35 AM 57.7 °F 56.8 °F 97% 30.06 in 10.0 mi Calm Calm - N/A   Clear
12:55 AM 55.8 °F 55.9 °F 100% 30.06 in 10.0 mi Calm Calm - N/A   Clear
1:15 AM 55.8 °F 55.9 °F 100% 30.05 in 10.0 mi Calm Calm - N/A   Clear
1:35 AM 56.1 °F 56.1 °F 100% 30.05 in 10.0 mi Calm Calm - N/A   Clear
1:55 AM 56.3 °F 56.3 °F 100% 30.06 in 10.0 mi Calm Calm - N/A   Clear
2:15 AM 55.8 °F 55.9 °F 100% 30.06 in 10.0 mi Calm Calm - N/A   Clear
2:35 AM 55.8 °F 55.9 °F 100% 30.06 in 10.0 mi Calm Calm - N/A   Clear
2:55 AM 56.3 °F 56.1 °F 99% 30.06 in 10.0 mi East 4.6 mph - N/A   Clear
3:15 AM 58.3 °F 57.0 °F 96% 30.05 in 10.0 mi East 5.8 mph - N/A   Clear
3:35 AM 58.3 °F 56.5 °F 94% 30.05 in 10.0 mi East 6.9 mph - N/A   Clear
3:55 AM 58.3 °F 56.1 °F 93% 30.05 in 10.0 mi East 5.8 mph - N/A   Clear
4:15 AM 58.3 °F 55.4 °F 90% 30.06 in 10.0 mi East 4.6 mph - N/A   Clear
4:35 AM 58.3 °F 55.0 °F 89% 30.06 in 10.0 mi East 3.5 mph - N/A   Clear
4:55 AM 57.7 °F 54.9 °F 90% 30.06 in 10.0 mi East 4.6 mph - N/A   Clear
5:15 AM 57.2 °F 54.5 °F 91% 30.07 in 10.0 mi East 4.6 mph - N/A   Clear
5:35 AM 56.5 °F 53.8 °F 91% 30.07 in 10.0 mi ESE 3.5 mph - N/A   Clear
5:55 AM 56.1 °F 53.6 °F 91% 30.07 in 10.0 mi ESE 4.6 mph - N/A   Clear
6:15 AM 55.8 °F 53.8 °F 93% 30.07 in 10.0 mi ESE 8.1 mph - N/A   Clear
6:35 AM 55.8 °F 53.4 °F 92% 30.07 in 10.0 mi SE 5.8 mph - N/A   Clear
6:55 AM 55.8 °F 53.8 °F 93% 30.08 in 10.0 mi SE 5.8 mph - N/A   Clear
7:15 AM 55.8 °F 54.0 °F 94% 30.08 in 10.0 mi SE 5.8 mph - N/A   Clear
7:35 AM 56.1 °F 54.1 °F 93% 30.09 in 10.0 mi SE 4.6 mph - N/A   Clear
7:55 AM 58.1 °F 54.7 °F 88% 30.09 in 10.0 mi SE 6.9 mph - N/A   Clear
8:15 AM 59.7 °F 53.8 °F 81% 30.09 in 10.0 mi ESE 6.9 mph - N/A   Clear
8:35 AM 61.7 °F 52.5 °F 72% 30.09 in 10.0 mi SE 6.9 mph - N/A   Clear
8:55 AM 64.2 °F 52.3 °F 65% 30.09 in 10.0 mi SE 9.2 mph - N/A   Clear
9:15 AM 64.9 °F 52.0 °F 63% 30.10 in 10.0 mi SE 9.2 mph - N/A   Clear
9:35 AM 65.8 °F 52.3 °F 62% 30.10 in 10.0 mi SSE 10.4 mph - N/A   Clear
9:55 AM 67.6 °F 53.4 °F 60% 30.10 in 10.0 mi SSE 8.1 mph - N/A   Clear
10:15 AM 68.5 °F 53.8 °F 59% 30.11 in 10.0 mi SE 6.9 mph - N/A   Clear
10:35 AM 70.5 °F 55.4 °F 59% 30.10 in 10.0 mi SE 6.9 mph - N/A   Clear
10:55 AM 70.9 °F 53.6 °F 54% 30.10 in 10.0 mi SSE 10.4 mph - N/A   Clear
11:15 AM 71.4 °F 52.9 °F 52% 30.10 in 10.0 mi SSE 8.1 mph - N/A   Clear
11:35 AM 74.1 °F 53.6 °F 49% 30.10 in 10.0 mi SSE 8.1 mph - N/A   Clear
11:55 AM 76.1 °F 53.2 °F 45% 30.09 in 10.0 mi ESE 5.8 mph 16.1 mph N/A   Clear
12:15 PM 76.1 °F 51.8 °F 43% 30.09 in 10.0 mi South 5.8 mph - N/A   Clear
12:35 PM 76.1 °F 50.2 °F 40% 30.08 in 10.0 mi ESE 10.4 mph - N/A   Clear
12:55 PM 76.1 °F 49.8 °F 40% 30.08 in 10.0 mi ESE 5.8 mph - N/A   Clear
1:15 PM 76.5 °F 49.6 °F 39% 30.07 in 10.0 mi SE 4.6 mph - N/A   Clear
1:35 PM 76.3 °F 49.6 °F 39% 30.06 in 10.0 mi ESE 4.6 mph - N/A   Clear
1:55 PM 76.6 °F 49.8 °F 39% 30.05 in 10.0 mi SE 5.8 mph - N/A   Clear
2:15 PM 78.4 °F 51.1 °F 38% 30.04 in 10.0 mi SSE 6.9 mph - N/A   Clear
2:35 PM 78.4 °F 50.4 °F 37% 30.04 in 10.0 mi ESE 5.8 mph - N/A   Clear
2:55 PM 78.3 °F 50.9 °F 38% 30.04 in 10.0 mi South 6.9 mph - N/A   Clear
3:15 PM 78.4 °F 49.3 °F 36% 30.03 in 10.0 mi SE 6.9 mph - N/A   Clear
3:35 PM 78.6 °F 47.7 °F 34% 30.02 in 10.0 mi SSE 3.5 mph - N/A   Clear
3:55 PM 78.8 °F 47.8 °F 34% 30.01 in 10.0 mi South 5.8 mph - N/A   Clear
4:15 PM 78.6 °F 47.7 °F 34% 30.00 in 10.0 mi SSE 3.5 mph - N/A   Clear
4:35 PM 78.4 °F 48.4 °F 35% 29.99 in 10.0 mi SE 4.6 mph - N/A   Clear
4:55 PM 78.4 °F 49.1 °F 36% 29.99 in 10.0 mi East 5.8 mph - N/A   Clear
5:15 PM 78.4 °F 50.2 °F 37% 29.99 in 10.0 mi ESE 3.5 mph - N/A   Clear
5:35 PM 78.4 °F 51.6 °F 39% 29.99 in 10.0 mi East 4.6 mph - N/A   Clear
5:55 PM 78.4 °F 51.8 °F 39% 29.99 in 10.0 mi ESE 4.6 mph - N/A   Clear
6:15 PM 78.4 °F 51.8 °F 39% 29.98 in 10.0 mi ESE 5.8 mph - N/A   Clear
6:35 PM 77.7 °F 52.3 °F 41% 29.99 in 10.0 mi East 4.6 mph - N/A   Clear
6:55 PM 76.1 °F 53.2 °F 45% 29.99 in 10.0 mi East 3.5 mph - N/A   Clear
7:15 PM 76.1 °F 55.0 °F 48% 29.98 in 10.0 mi ESE 4.6 mph - N/A   Clear
7:35 PM 75.0 °F 55.6 °F 51% 29.98 in 10.0 mi Calm Calm - N/A   Clear
7:55 PM 71.6 °F 55.6 °F 57% 29.98 in 10.0 mi ESE 3.5 mph - N/A   Clear
8:15 PM 70.9 °F 56.3 °F 60% 29.99 in 10.0 mi ESE 3.5 mph - N/A   Clear
8:35 PM 70.9 °F 58.5 °F 65% 29.98 in 10.0 mi ESE 3.5 mph - N/A   Clear
8:55 PM 70.9 °F 58.8 °F 66% 29.99 in 10.0 mi Calm Calm - N/A   Clear
9:15 PM 69.4 °F 57.9 °F 67% 29.99 in 10.0 mi Calm Calm - N/A   Clear
9:35 PM 66.7 °F 56.7 °F 70% 29.98 in 10.0 mi Calm Calm - N/A   Clear
9:55 PM 68.0 °F 56.3 °F 66% 29.98 in 10.0 mi SE 8.1 mph - N/A   Clear
10:15 PM 70.5 °F 54.9 °F 58% 29.99 in 10.0 mi SSE 5.8 mph - N/A   Clear
10:35 PM 70.9 °F 54.0 °F 55% 29.99 in 10.0 mi SSE 6.9 mph - N/A   Clear
10:55 PM 70.9 °F 54.5 °F 56% 29.99 in 10.0 mi SSE 8.1 mph - N/A   Clear
11:15 PM 70.9 °F 54.9 °F 57% 29.99 in 10.0 mi SSE 9.2 mph - N/A   Clear
11:35 PM 70.9 °F 54.9 °F 57% 29.99 in 10.0 mi SSE 8.1 mph - N/A   Clear
11:55 PM 70.3 °F 54.5 °F 57% 29.99 in 10.0 mi SSE 8.1 mph - N/A   Clear